Location: Newcastle Observatory
(43.9158°N, 78.5831°W)
Time: 19:00:14
(UTC-04:00)

Amateur Radio Satellites - All Passes

Search period start: 30 June 2016 18:30
Search period end: 01 July 2016 18:30
Location: Newcastle Observatory, 43.9158°N, 78.5831°W

Satellite Date Start Highest point End Downlink Frequencies (MHz)
Time Altitude Azimuth
SO-50 30 Jun 18:31:21 18:33:31 13° 331° (NNW) 18:35:40 436.795
DANDE 30 Jun 18:31:54 18:35:32 21° 62° (ENE) 18:38:32 436.750
AO-7 30 Jun 18:32:24 18:33:25 10° 276° (W) 18:34:27 29.400- 29.500
Cubesat XI-IV 30 Jun 18:39:48 18:45:10 87° 73° (ENE) 18:50:35 437.490
GOMX 1 30 Jun 18:42:59 18:47:25 57° 74° (ENE) 18:51:39 467.674
LilacSat-2 30 Jun 18:44:44 18:48:31 85° 257° (WSW) 18:52:22 437.200
STARS 30 Jun 18:45:55 18:49:19 22° 295° (WNW) 18:52:43 437.465
HORYU 2 30 Jun 18:47:24 18:48:43 11° 271° (W) 18:50:02 437.375
NOAA 18 30 Jun 18:52:39 18:58:05 67° 257° (WSW) 19:03:35 137.9125
CANX-2 30 Jun 18:53:06 18:53:39 10° 59° (ENE) 18:54:10 2200.000
CUTE 1.7 + AOD 2 30 Jun 19:10:47 19:13:02 14° 62° (ENE) 19:15:16 437.475
SEEDS 30 Jun 19:12:18 19:12:56 10° 60° (ENE) 19:13:33 437.485
CUTE-I 30 Jun 19:13:45 19:18:54 48° 260° (W) 19:24:07 437.470
HO-68 30 Jun 19:21:27 19:27:54 38° 62° (ENE) 19:34:21 435.675
GONETS M04 30 Jun 19:27:27 19:36:09 73° 281° (W) 19:44:52
CUSAT 1 30 Jun 19:30:40 19:33:35 25° 270° (W) 19:36:04 437.405
RS-15 30 Jun 19:31:21 19:43:08 48° 38° (NE) 19:54:54 29.354- 29.394
DOVE 4 30 Jun 19:31:47 19:36:04 85° 76° (ENE) 19:40:14 437.250
NOAA 15 30 Jun 19:35:48 19:39:56 23° 267° (W) 19:44:04 137.62
Cosmos 2499 30 Jun 19:43:19 19:51:44 82° 279° (W) 20:00:40 435.465 / 435.565
AAUSAT CUBESAT 2 30 Jun 19:43:28 19:45:18 13° 62° (ENE) 19:47:10 437.432
CUBEBUG 2 30 Jun 19:54:05 19:56:17 14° 61° (ENE) 19:58:32 437.445
CUBESAT XI-V 30 Jun 20:00:38 20:03:50 19° 297° (WNW) 20:07:00 437.345
BRITE-PL 30 Jun 20:02:27 20:04:20 12° 270° (W) 20:06:10 437.365/2234.400
CINEMA 3 30 Jun 20:10:29 20:14:34 63° 74° (ENE) 20:18:43 145.822/145.860
ZACube-1 30 Jun 20:12:21 20:12:30 10° 59° (ENE) 20:12:39 437.345
DANDE 30 Jun 20:14:26 20:18:34 31° 272° (W) 20:21:48 436.750
Oscar 11 30 Jun 20:15:54 20:17:44 12° 61° (ENE) 20:19:34 145.826/435.025
COMPASS 1 30 Jun 20:17:35 20:21:25 34° 70° (ENE) 20:25:15 437.405
GOMX 1 30 Jun 20:23:31 20:25:50 14° 269° (W) 20:28:07 467.674
Cubesat XI-IV 30 Jun 20:23:40 20:25:56 13° 272° (W) 20:28:12 437.490
CANX-2 30 Jun 20:24:30 20:28:48 89° 263° (W) 20:33:08 2200.000
FUNcube-1 30 Jun 20:26:27 20:28:35 14° 61° (ENE) 20:30:45 145.935
UWE-3 30 Jun 20:34:59 20:38:27 25° 67° (ENE) 20:42:00 435.000/436.395/437.385
STRAND 1 30 Jun 20:38:30 20:43:42 80° 103° (ESE) 20:48:50 437.568
AO-85 30 Jun 20:38:46 20:42:57 23° 111° (ESE) 20:47:03 145.980
AUBIESAT-1 30 Jun 20:42:40 20:45:35 30° 65° (ENE) 20:48:35 437.475
SEEDS 30 Jun 20:43:41 20:47:57 87° 262° (W) 20:52:15 437.485
CUTE 1.7 + AOD 2 30 Jun 20:44:07 20:48:21 62° 259° (W) 20:52:38 437.475
HO-68 30 Jun 21:08:38 21:15:27 47° 260° (W) 21:22:21 435.675
DELFI C3 30 Jun 21:09:17 21:12:08 19° 66° (ENE) 21:14:59 145.870
AAUSAT CUBESAT 2 30 Jun 21:16:05 21:20:15 67° 258° (WSW) 21:24:28 437.432
M-CUBED/EXP-1 PRIME 30 Jun 21:23:51 21:27:03 57° 253° (WSW) 21:30:20 437.505
CUBEBUG 2 30 Jun 21:28:16 21:32:24 60° 260° (W) 21:36:40 437.445
GONETS M04 30 Jun 21:29:40 21:34:43 16° 304° (WNW) 21:39:47
Cosmos 2499 30 Jun 21:40:32 21:46:24 20° 302° (WNW) 21:52:27 435.465 / 435.565
ZACube-1 30 Jun 21:43:48 21:48:02 90° 256° (WSW) 21:52:24 437.345
RS-15 30 Jun 21:44:13 21:56:23 67° 244° (WSW) 22:08:24 29.354- 29.394
Oscar 11 30 Jun 21:48:56 21:53:16 74° 259° (W) 21:57:38 145.826/435.025
CINEMA 3 30 Jun 21:50:56 21:52:12 11° 271° (W) 21:53:27 145.822/145.860
COMPASS 1 30 Jun 21:53:46 21:57:03 22° 267° (W) 22:00:21 437.405
PRISM 30 Jun 21:58:03 22:02:10 88° 108° (ESE) 22:06:13 437.425
FUNcube-1 30 Jun 22:00:06 22:04:16 64° 259° (W) 22:08:35 145.935
UWE-3 30 Jun 22:11:06 22:14:49 30° 265° (W) 22:18:38 435.000/436.395/437.385
AO-85 30 Jun 22:17:46 22:23:08 60° 308° (NW) 22:28:16 145.980
AUBIESAT-1 30 Jun 22:18:14 22:20:15 15° 262° (W) 22:22:16 437.475
STRAND 1 30 Jun 22:19:18 22:22:13 15° 302° (WNW) 22:25:07 437.568
ANTELSAT 30 Jun 22:35:12 22:38:23 18° 91° (E) 22:41:34 437.575/2403.000
HUMSAT D 30 Jun 22:35:35 22:39:45 79° 76° (ENE) 22:44:02 437.325/437.525
DELFI C3 30 Jun 22:42:57 22:46:43 38° 262° (W) 22:50:31 145.870
50 SAT 30 Jun 22:46:42 22:47:55 11° 62° (ENE) 22:49:08 437.505
AISAT 30 Jun 23:01:08 23:04:18 20° 64° (ENE) 23:07:29 437.250
Cosmos 2491 30 Jun 23:01:14 23:03:26 11° 71° (ENE) 23:05:38 435.465 / 435.565
ESTCUBE 1 30 Jun 23:06:13 23:10:15 33° 68° (ENE) 23:14:19 437.505/2401.250
DX 1 30 Jun 23:12:24 23:15:30 19° 64° (ENE) 23:18:36 434.975-435.025
Cosmos 2504 30 Jun 23:14:49 23:18:06 12° 51° (NE) 23:21:19 435.465 / 435.565
TIGRISAT 30 Jun 23:25:02 23:29:37 53° 100° (E) 23:34:12 435.000
UNISAT 6 30 Jun 23:30:59 23:35:39 65° 101° (ESE) 23:40:19 437.425
QB50P2 30 Jun 23:34:34 23:36:18 12° 90° (E) 23:38:01 145.880/145.840
POLYITAN 1 30 Jun 23:37:06 23:38:56 12° 90° (E) 23:40:47 437.675
SO-50 30 Jun 23:37:15 23:41:27 31° 44° (NE) 23:45:33 436.795
YUBILEINY 30 Jun 23:37:45 23:46:16 48° 74° (ENE) 23:54:43 435.215
CUBEBUG 1 30 Jun 23:40:18 23:44:30 49° 72° (ENE) 23:48:41 437.445
VELOX 1 30 Jun 23:54:52 23:59:14 65° 73° (ENE) 00:03:36 145.980
RS-15 01 Jul 00:00:03 00:06:21 16° 266° (W) 00:12:40 29.354- 29.394
AO-85 01 Jul 00:01:40 00:04:37 15° 328° (NNW) 00:07:31 145.980
ANTELSAT 01 Jul 00:10:50 00:15:22 52° 288° (WNW) 00:19:55 437.575/2403.000
50 SAT 01 Jul 00:17:26 00:21:05 59° 259° (W) 00:24:48 437.505
BUGSAT 1 01 Jul 00:18:04 00:20:08 13° 91° (E) 00:22:14 437.445
SPROUT 01 Jul 00:19:01 00:23:07 50° 72° (ENE) 00:27:15 437.525
UKube-1 01 Jul 00:22:13 00:26:32 82° 75° (ENE) 00:30:51 .
AISAT 01 Jul 00:36:18 00:40:30 43° 261° (W) 00:44:42 437.250
ESTCUBE 1 01 Jul 00:43:17 00:47:05 26° 265° (W) 00:50:55 437.505/2401.250
DX 1 01 Jul 00:47:15 00:51:23 43° 261° (W) 00:55:33 434.975-435.025
NANOSAT C BR1 01 Jul 00:47:15 00:51:30 68° 102° (ESE) 00:55:44 145.865
Cosmos 2491 01 Jul 00:49:46 00:58:20 62° 92° (E) 01:06:54 435.465 / 435.565
QB50P1 01 Jul 00:51:45 00:56:02 80° 103° (ESE) 01:00:17 145.935-145.965
POPSAT HIP 1 01 Jul 00:55:13 00:59:30 86° 104° (ESE) 01:03:47 437.405
TIGRISAT 01 Jul 01:02:41 01:05:55 19° 297° (WNW) 01:09:09 435.000
Cosmos 2504 01 Jul 01:05:10 01:13:53 55° 75° (ENE) 01:22:12 435.465 / 435.565
DUCHIFAT 1 01 Jul 01:06:35 01:10:49 79° 286° (WNW) 01:15:04 145.980
QB50P2 01 Jul 01:08:16 01:12:31 64° 286° (WNW) 01:16:45 145.880/145.840
UNISAT 6 01 Jul 01:09:03 01:11:51 16° 298° (WNW) 01:14:38 437.425
POLYITAN 1 01 Jul 01:10:54 01:15:08 63° 287° (WNW) 01:19:23 437.675
SO-50 01 Jul 01:17:42 01:21:59 37° 244° (WSW) 01:26:08 436.795
CUBEBUG 1 01 Jul 01:18:19 01:21:04 16° 268° (W) 01:23:48 437.445
TISAT 1 01 Jul 01:29:45 01:33:54 79° 74° (ENE) 01:38:05 437.305
VELOX 1 01 Jul 01:34:14 01:36:08 13° 270° (W) 01:38:03 145.980
YUBILEINY 01 Jul 01:34:53 01:42:53 40° 274° (W) 01:50:53 435.215
SWISSCUBE 01 Jul 01:35:05 01:38:46 23° 64° (ENE) 01:42:29 437.505
O/OREOS (USA 219) 01 Jul 01:35:38 01:36:46 11° 97° (E) 01:37:55 437.305
BEESAT 3 01 Jul 01:43:29 01:46:14 18° 112° (ESE) 01:48:59 437.485
BUGSAT 1 01 Jul 01:51:49 01:55:50 54° 287° (WNW) 01:59:53 437.445
JAS-2 01 Jul 01:52:38 01:58:12 65° 102° (ESE) 02:03:22 435.910
SPROUT 01 Jul 01:56:53 01:59:22 15° 269° (W) 02:01:52 437.525
BEESAT 01 Jul 01:59:20 02:03:37 34° 67° (ENE) 02:07:55 436.000
ITUPSAT 1 01 Jul 02:02:04 02:06:24 35° 68° (ENE) 02:10:47 437.325
PCSat 01 Jul 02:10:35 02:15:55 62° 116° (ESE) 02:21:17 145.827
Oscar 19 01 Jul 02:21:02 02:25:57 44° 99° (E) 02:30:49 437.125/150
NANOSAT C BR1 01 Jul 02:24:46 02:26:42 13° 299° (WNW) 02:28:37 145.865
BEESAT 2 01 Jul 02:25:49 02:29:14 28° 115° (ESE) 02:32:40 435.950
QB50P1 01 Jul 02:29:54 02:31:10 11° 300° (WNW) 02:32:27 145.935-145.965
POPSAT HIP 1 01 Jul 02:33:47 02:34:37 10° 301° (WNW) 02:35:28 437.405
Cosmos 2491 01 Jul 02:48:11 02:55:44 32° 293° (WNW) 03:03:19 435.465 / 435.565
ITAMSAT 1 01 Jul 02:51:14 02:53:39 13° 89° (E) 02:56:03 435.822/435.867
Gurwin Techsat 1B 01 Jul 02:59:04 03:04:10 44° 98° (E) 03:09:14 435.225
Cosmos 2504 01 Jul 02:59:07 03:06:53 36° 276° (W) 03:14:21 435.465 / 435.565
O/OREOS (USA 219) 01 Jul 03:11:00 03:15:30 77° 295° (WNW) 03:20:00 437.305
SWISSCUBE 01 Jul 03:11:42 03:16:17 44° 261° (W) 03:20:54 437.505
BEESAT 3 01 Jul 03:19:50 03:23:36 43° 309° (NW) 03:27:24 437.485
BEESAT 01 Jul 03:37:17 03:41:24 28° 264° (W) 03:45:33 436.000
JAS-2 01 Jul 03:38:57 03:42:40 18° 302° (WNW) 03:46:12 435.910
ITUPSAT 1 01 Jul 03:40:12 03:44:16 27° 265° (W) 03:48:23 437.325
GONETS M04 01 Jul 03:41:46 03:45:35 13° 53° (NE) 03:49:23
KKS-1 01 Jul 03:42:04 03:46:15 44° 70° (ENE) 03:50:28 437.445
MOZHAYETS 4 01 Jul 03:51:40 03:56:07 49° 72° (ENE) 04:00:37
PCSat 01 Jul 03:55:18 03:59:44 25° 316° (NW) 04:04:11 145.827
Oscar 19 01 Jul 04:00:53 04:05:01 25° 296° (WNW) 04:09:09 437.125/150
BEESAT 2 01 Jul 04:03:28 04:07:00 30° 313° (NW) 04:10:34 435.950
STARS 01 Jul 04:06:54 04:10:58 40° 70° (ENE) 04:15:04 437.465
AIST 1 01 Jul 04:08:49 04:12:58 49° 78° (ENE) 04:17:06
ITAMSAT 1 01 Jul 04:28:29 04:33:46 81° 284° (WNW) 04:38:58 435.822/435.867
AO-7 01 Jul 04:30:38 04:38:35 44° 100° (E) 04:46:27 29.400- 29.500
Gurwin Techsat 1B 01 Jul 04:39:30 04:43:53 27° 296° (WNW) 04:48:15 435.225
O/OREOS (USA 219) 01 Jul 04:54:37 04:55:42 11° 314° (NW) 04:56:48 437.305
HORYU 2 01 Jul 04:58:33 05:00:34 13° 90° (E) 05:02:35 437.375
AIST 2 01 Jul 05:07:39 05:11:46 80° 122° (ESE) 05:15:55 435.215
AO-85 01 Jul 05:08:49 05:12:47 27° 42° (NE) 05:16:26 145.980
KKS-1 01 Jul 05:19:55 05:23:02 19° 267° (W) 05:26:10 437.445
CUBESAT XI-V 01 Jul 05:26:35 05:31:11 58° 73° (ENE) 05:35:48 437.345
MOZHAYETS 4 01 Jul 05:30:23 05:33:34 18° 269° (W) 05:36:45
Cosmos 2499 01 Jul 05:33:30 05:41:45 43° 71° (ENE) 05:49:30 435.465 / 435.565
GONETS M04 01 Jul 05:35:54 05:44:33 62° 77° (ENE) 05:53:11
STARS 01 Jul 05:44:19 05:47:29 20° 267° (W) 05:50:42 437.465
AIST 1 01 Jul 05:47:49 05:50:06 14° 275° (W) 05:52:22
PHONESAT 2.4 01 Jul 06:04:50 06:06:49 16° 156° (SSE) 06:08:49 2401.200-2431.200
NOAA 15 01 Jul 06:09:47 06:12:56 16° 90° (E) 06:16:03 137.62
ITAMSAT 1 01 Jul 06:10:16 06:12:22 12° 304° (NW) 06:14:29 435.822/435.867
STRAND 1 01 Jul 06:18:43 06:22:12 19° 60° (ENE) 06:25:41 437.568
AO-7 01 Jul 06:23:30 06:31:22 47° 299° (WNW) 06:39:12 29.400- 29.500
BRITE-PL 01 Jul 06:24:33 06:27:26 18° 93° (E) 06:30:20 437.365/2234.400
HORYU 2 01 Jul 06:33:06 06:37:34 67° 287° (WNW) 06:42:02 437.375
GOMX 1 01 Jul 06:44:13 06:46:23 14° 91° (E) 06:48:34 467.674
AIST 2 01 Jul 06:48:14 06:50:47 16° 322° (NW) 06:53:21 435.215
AO-85 01 Jul 06:49:10 06:53:24 41° 244° (WSW) 06:57:16 145.980
CUSAT 1 01 Jul 06:49:27 06:55:50 31° 91° (E) 07:01:17 437.405
Cubesat XI-IV 01 Jul 06:56:00 07:00:46 31° 96° (E) 07:05:29 437.490
CUBESAT XI-V 01 Jul 07:06:05 07:08:56 16° 270° (W) 07:11:48 437.345
NOAA 18 01 Jul 07:13:13 07:18:35 47° 100° (E) 07:23:54 137.9125
Cosmos 2499 01 Jul 07:26:46 07:34:56 46° 273° (W) 07:42:37 435.465 / 435.565
CUTE-I 01 Jul 07:29:05 07:34:26 61° 101° (ESE) 07:39:44 437.470
DOVE 4 01 Jul 07:29:11 07:32:26 20° 93° (E) 07:35:47 437.250
GONETS M04 01 Jul 07:33:32 07:40:47 31° 278° (W) 07:48:04
ISS 01 Jul 07:34:05 07:36:16 17° 134° (SE) 07:38:28 145.825
DANDE 01 Jul 07:36:59 07:44:34 40° 91° (E) 07:51:26 436.750
PHONESAT 2.4 01 Jul 07:40:06 07:42:59 38° 172° (S) 07:45:52 2401.200-2431.200
NOAA 15 01 Jul 07:47:59 07:53:13 69° 287° (WNW) 07:58:25 137.62
LilacSat-2 01 Jul 07:50:51 07:54:44 67° 284° (WNW) 07:58:35 437.200
STRAND 1 01 Jul 07:55:46 08:00:52 64° 259° (W) 08:06:01 437.568
BRITE-PL 01 Jul 08:02:16 08:06:08 38° 289° (WNW) 08:10:02 437.365/2234.400
CINEMA 3 01 Jul 08:04:20 08:07:00 15° 91° (E) 08:09:41 145.822/145.860
CANX-2 01 Jul 08:09:35 08:12:00 15° 90° (E) 08:14:23 2200.000
AO-7 01 Jul 08:19:09 08:22:03 12° 322° (NW) 08:24:57 29.400- 29.500
GOMX 1 01 Jul 08:20:40 08:24:48 56° 287° (WNW) 08:29:07 467.674
SEEDS 01 Jul 08:27:41 08:29:59 14° 90° (E) 08:32:17 437.485
CUTE 1.7 + AOD 2 01 Jul 08:28:22 08:31:34 20° 93° (E) 08:34:45 437.475
CUSAT 1 01 Jul 08:30:27 08:37:46 52° 284° (WNW) 08:43:45 437.405
HO-68 01 Jul 08:34:36 08:41:00 33° 96° (E) 08:47:21 435.675
Cubesat XI-IV 01 Jul 08:35:56 08:40:52 37° 293° (WNW) 08:45:46 437.490
PRISM 01 Jul 08:48:22 08:52:31 75° 75° (ENE) 08:56:40 437.425
NOAA 18 01 Jul 08:54:23 08:58:59 27° 297° (WNW) 09:03:34 137.9125
AAUSAT CUBESAT 2 01 Jul 08:58:01 09:00:46 17° 92° (E) 09:03:30 437.432
DOVE 4 01 Jul 09:06:11 09:10:17 41° 288° (WNW) 09:14:36 437.250
ISS 01 Jul 09:09:09 09:12:23 68° 330° (NNW) 09:15:39 145.825
CUTE-I 01 Jul 09:10:07 09:14:00 21° 299° (WNW) 09:17:51 437.470
PCSat 01 Jul 09:14:55 09:18:00 15° 35° (NE) 09:21:04 145.827
PHONESAT 2.4 01 Jul 09:16:26 09:19:20 38° 188° (S) 09:22:13 2401.200-2431.200
CUBEBUG 2 01 Jul 09:17:34 09:21:30 27° 95° (E) 09:25:29 437.445
DANDE 01 Jul 09:19:14 09:27:18 50° 286° (WNW) 09:34:28 436.750
NOAA 15 01 Jul 09:31:03 09:32:01 10° 306° (NW) 09:32:59 137.62
ZACube-1 01 Jul 09:31:34 09:34:36 17° 91° (E) 09:37:37 437.345
COMPASS 1 01 Jul 09:34:04 09:38:11 53° 100° (E) 09:42:15 437.405
Oscar 11 01 Jul 09:35:37 09:38:42 19° 92° (E) 09:41:44 145.826/435.025
ANTELSAT 01 Jul 09:35:50 09:38:47 18° 63° (ENE) 09:41:47 437.575/2403.000
CINEMA 3 01 Jul 09:39:56 09:44:28 62° 286° (WNW) 09:49:11 145.822/145.860
CANX-2 01 Jul 09:43:59 09:48:11 53° 287° (WNW) 09:52:19 2200.000
FUNcube-1 01 Jul 09:46:59 09:50:38 23° 93° (E) 09:54:17 145.935
AUBIESAT-1 01 Jul 09:53:21 09:56:32 22° 101° (E) 09:59:52 437.475
UWE-3 01 Jul 09:58:18 10:02:47 47° 99° (E) 10:07:17 435.000/436.395/437.385
BEESAT 3 01 Jul 09:58:34 10:01:37 21° 42° (NE) 10:04:40 437.485
SEEDS 01 Jul 10:01:53 10:06:02 53° 287° (WNW) 10:10:08 437.485
RS-15 01 Jul 10:02:16 10:09:00 18° 96° (E) 10:15:54 29.354- 29.394
CUTE 1.7 + AOD 2 01 Jul 10:03:34 10:07:33 37° 290° (WNW) 10:11:28 437.475
DELFI C3 01 Jul 10:19:26 10:22:40 23° 94° (E) 10:25:51 145.870
HUMSAT D 01 Jul 10:19:37 10:21:18 12° 89° (E) 10:22:58 437.325/437.525
HO-68 01 Jul 10:22:01 10:28:57 52° 294° (WNW) 10:35:51 435.675
TIGRISAT 01 Jul 10:24:59 10:29:11 52° 72° (ENE) 10:33:30 435.000
QB50P2 01 Jul 10:29:15 10:30:51 12° 60° (ENE) 10:32:27 145.880/145.840
UNISAT 6 01 Jul 10:31:04 10:35:21 65° 73° (ENE) 10:39:46 437.425
POLYITAN 1 01 Jul 10:31:48 10:33:28 12° 61° (ENE) 10:35:09 437.675
AAUSAT CUBESAT 2 01 Jul 10:32:30 10:36:28 42° 288° (WNW) 10:40:22 437.432
M-CUBED/EXP-1 PRIME 01 Jul 10:34:42 10:38:39 75° 107° (ESE) 10:42:56 437.505
BEESAT 2 01 Jul 10:42:09 10:45:43 29° 46° (NE) 10:49:14 435.950
ISS 01 Jul 10:46:35 10:49:16 23° 350° (N) 10:51:57 145.825
PHONESAT 2.4 01 Jul 10:53:28 10:55:29 16° 204° (SSW) 10:57:30 2401.200-2431.200
CUBEBUG 2 01 Jul 10:53:57 10:58:09 35° 290° (WNW) 11:02:24 437.445
PCSat 01 Jul 10:57:02 11:02:28 67° 56° (ENE) 11:07:51 145.827
Cosmos 2491 01 Jul 10:58:35 11:06:16 33° 68° (ENE) 11:13:54 435.465 / 435.565
ZACube-1 01 Jul 11:06:43 11:11:09 52° 288° (WNW) 11:15:36 437.345
DANDE 01 Jul 11:09:50 11:11:38 11° 304° (NW) 11:13:21 436.750
BUGSAT 1 01 Jul 11:10:12 11:11:44 12° 61° (ENE) 11:13:15 437.445
COMPASS 1 01 Jul 11:10:53 11:13:19 15° 297° (WNW) 11:15:45 437.405
Oscar 11 01 Jul 11:10:54 11:15:02 43° 289° (WNW) 11:19:08 145.826/435.025
ANTELSAT 01 Jul 11:10:56 11:15:07 48° 261° (W) 11:19:26 437.575/2403.000
FUNcube-1 01 Jul 11:22:45 11:26:58 38° 290° (WNW) 11:31:12 145.935
AUBIESAT-1 01 Jul 11:27:24 11:31:03 35° 294° (WNW) 11:34:55 437.475
UWE-3 01 Jul 11:35:33 11:38:55 20° 295° (WNW) 11:42:18 435.000/436.395/437.385
BEESAT 3 01 Jul 11:35:43 11:39:32 46° 241° (WSW) 11:43:19 437.485
NANOSAT C BR1 01 Jul 11:40:28 11:44:34 58° 73° (ENE) 11:48:43 145.865
O/OREOS (USA 219) 01 Jul 11:40:41 11:44:36 29° 57° (ENE) 11:48:31 437.305
QB50P1 01 Jul 11:45:14 11:49:23 70° 75° (ENE) 11:53:35 145.935-145.965
VELOX 1 01 Jul 11:46:07 11:47:13 11° 89° (E) 11:48:18 145.980
50 SAT 01 Jul 11:47:59 11:48:13 10° 89° (E) 11:48:28 437.505
POPSAT HIP 1 01 Jul 11:48:44 11:52:55 75° 74° (ENE) 11:57:07 437.405
AIST 2 01 Jul 11:50:38 11:52:43 13° 35° (NE) 11:54:48 435.215
HUMSAT D 01 Jul 11:53:04 11:57:22 66° 285° (WNW) 12:01:38 437.325/437.525
DELFI C3 01 Jul 11:54:04 11:57:32 28° 291° (WNW) 12:00:57 145.870
DUCHIFAT 1 01 Jul 11:59:27 12:03:37 89° 90° (E) 12:07:49 145.980
QB50P2 01 Jul 12:01:53 12:06:04 73° 258° (WSW) 12:10:18 145.880/145.840
TIGRISAT 01 Jul 12:03:40 12:06:14 15° 270° (W) 12:08:50 435.000
Oscar 19 01 Jul 12:04:30 12:05:49 11° 55° (NE) 12:07:08 437.125/150
POLYITAN 1 01 Jul 12:04:31 12:08:42 71° 259° (WSW) 12:12:55 437.675
JAS-2 01 Jul 12:04:37 12:11:24 40° 66° (ENE) 12:17:34 435.910
RS-15 01 Jul 12:07:47 12:19:07 74° 118° (ESE) 12:31:07 29.354- 29.394
UKube-1 01 Jul 12:09:58 12:11:37 12° 90° (E) 12:13:17 .
UNISAT 6 01 Jul 12:10:42 12:12:33 12° 271° (W) 12:14:25 437.425
M-CUBED/EXP-1 PRIME 01 Jul 12:11:15 12:12:46 12° 303° (WNW) 12:14:21 437.505
HO-68 01 Jul 12:12:55 12:15:03 11° 315° (NW) 12:17:10 435.675
BEESAT 2 01 Jul 12:20:01 12:23:31 29° 244° (WSW) 12:26:59 435.950
ISS 01 Jul 12:23:45 12:26:27 23° 10° (N) 12:29:09 145.825
AISAT 01 Jul 12:25:01 12:28:54 30° 96° (E) 12:32:47 437.250
ESTCUBE 1 01 Jul 12:33:24 12:37:52 58° 101° (E) 12:42:16 437.505/2401.250
DX 1 01 Jul 12:34:05 12:37:48 27° 96° (E) 12:41:30 434.975-435.025
YUBILEINY 01 Jul 12:40:15 12:48:35 52° 89° (E) 12:56:58 435.215
PCSat 01 Jul 12:41:37 12:45:19 19° 254° (WSW) 12:48:59 145.827
BUGSAT 1 01 Jul 12:42:36 12:46:34 65° 258° (WSW) 12:50:35 437.445
Gurwin Techsat 1B 01 Jul 12:45:34 12:47:40 12° 56° (NE) 12:49:47 435.225
Cosmos 2491 01 Jul 12:55:05 13:03:34 59° 269° (W) 13:12:03 435.465 / 435.565
CUBEBUG 1 01 Jul 13:03:22 13:07:42 83° 101° (ESE) 13:12:02 437.445
TISAT 1 01 Jul 13:14:40 13:15:47 11° 89° (E) 13:16:52 437.305
50 SAT 01 Jul 13:18:38 13:22:16 57° 286° (WNW) 13:25:51 437.505
NANOSAT C BR1 01 Jul 13:18:48 13:20:41 13° 270° (W) 13:22:35 145.865
VELOX 1 01 Jul 13:19:47 13:24:12 75° 286° (WNW) 13:28:34 145.980
O/OREOS (USA 219) 01 Jul 13:20:02 13:23:59 31° 255° (WSW) 13:27:55 437.305
QB50P1 01 Jul 13:24:41 13:25:39 11° 271° (W) 13:26:37 145.935-145.965
AIST 2 01 Jul 13:27:42 13:31:54 79° 56° (ENE) 13:36:03 435.215
Oscar 19 01 Jul 13:39:07 13:44:14 74° 74° (ENE) 13:49:23 437.125/150
SPROUT 01 Jul 13:39:07 13:43:26 83° 103° (ESE) 13:47:43 437.525
AO-7 01 Jul 13:42:44 13:47:46 18° 45° (NE) 13:52:47 29.400- 29.500
UKube-1 01 Jul 13:43:49 13:48:07 66° 287° (WNW) 13:52:22 .
Cosmos 2504 01 Jul 13:44:37 13:52:13 43° 86° (E) 14:00:17 435.465 / 435.565
JAS-2 01 Jul 13:49:11 13:56:19 45° 262° (W) 14:02:51 435.910
ISS 01 Jul 14:00:02 14:03:19 69° 29° (NNE) 14:06:34 145.825
AISAT 01 Jul 14:01:35 14:05:18 27° 293° (WNW) 14:09:00 437.250
ITAMSAT 1 01 Jul 14:09:45 14:13:56 25° 63° (ENE) 14:18:08 435.822/435.867
DX 1 01 Jul 14:10:12 14:13:58 29° 293° (WNW) 14:17:42 434.975-435.025
ESTCUBE 1 01 Jul 14:11:28 14:14:12 16° 298° (WNW) 14:16:56 437.505/2401.250
Gurwin Techsat 1B 01 Jul 14:21:26 14:26:45 80° 74° (ENE) 14:32:05 435.225
RS-15 01 Jul 14:21:42 14:32:38 43° 325° (NW) 14:44:07 29.354- 29.394
YUBILEINY 01 Jul 14:37:45 14:45:38 37° 290° (WNW) 14:53:39 435.215
CUBEBUG 1 01 Jul 14:42:08 14:43:21 11° 301° (WNW) 14:44:34 437.445
TISAT 1 01 Jul 14:47:41 14:51:53 70° 286° (WNW) 14:56:05 437.305
Cosmos 2491 01 Jul 14:57:36 14:58:23 10° 290° (WNW) 14:59:10 435.465 / 435.565
AIST 2 01 Jul 15:08:42 15:09:45 11° 252° (WSW) 15:10:47 435.215
SWISSCUBE 01 Jul 15:10:17 15:14:50 41° 98° (E) 15:19:19 437.505
SPROUT 01 Jul 15:17:35 15:18:44 11° 300° (WNW) 15:19:54 437.525
Oscar 19 01 Jul 15:21:26 15:24:07 14° 271° (W) 15:26:49 437.125/150
AO-7 01 Jul 15:30:47 15:39:01 67° 66° (ENE) 15:47:19 29.400- 29.500
SO-50 01 Jul 15:32:13 15:36:57 51° 119° (ESE) 15:41:41 436.795
BEESAT 01 Jul 15:35:02 15:39:49 65° 102° (ESE) 15:44:34 436.000
ISS 01 Jul 15:37:16 15:39:25 17° 226° (SW) 15:41:34 145.825
Cosmos 2504 01 Jul 15:37:42 15:45:33 45° 288° (WNW) 15:53:54 435.465 / 435.565
ITUPSAT 1 01 Jul 15:38:16 15:43:05 69° 102° (ESE) 15:47:50 437.325
ITAMSAT 1 01 Jul 15:48:07 15:53:07 46° 260° (W) 15:58:11 435.822/435.867
MOZHAYETS 4 01 Jul 15:48:12 15:48:58 10° 87° (E) 15:49:44
HORYU 2 01 Jul 15:57:56 16:00:32 15° 61° (ENE) 16:03:07 437.375
Gurwin Techsat 1B 01 Jul 16:04:40 16:07:19 14° 271° (W) 16:09:58 435.225
RS-15 01 Jul 16:39:40 16:49:28 27° 359° (N) 16:59:30 29.354- 29.394
AIST 1 01 Jul 16:39:50 16:43:29 27° 90° (E) 16:47:07
SWISSCUBE 01 Jul 16:48:33 16:52:23 24° 296° (WNW) 16:56:12 437.505
GONETS M04 01 Jul 16:48:41 16:51:50 12° 72° (ENE) 16:55:00
NOAA 18 01 Jul 17:03:18 17:06:32 16° 57° (ENE) 17:09:47 137.9125
KKS-1 01 Jul 17:07:38 17:12:07 74° 103° (ESE) 17:16:34 437.445
SO-50 01 Jul 17:13:32 17:17:42 27° 318° (NW) 17:21:50 436.795
BEESAT 01 Jul 17:14:09 17:17:05 16° 299° (WNW) 17:20:00 436.000
CUTE-I 01 Jul 17:14:51 17:18:15 17° 59° (ENE) 17:21:39 437.470
ITUPSAT 1 01 Jul 17:17:32 17:20:22 16° 300° (WNW) 17:23:11 437.325
MOZHAYETS 4 01 Jul 17:22:04 17:26:45 84° 287° (WNW) 17:31:22
CUBESAT XI-V 01 Jul 17:23:36 17:25:39 13° 89° (E) 17:27:41 437.345
AO-7 01 Jul 17:25:23 17:32:21 29° 266° (W) 17:39:24 29.400- 29.500
NOAA 15 01 Jul 17:30:38 17:35:12 31° 65° (ENE) 17:39:46 137.62
STARS 01 Jul 17:30:39 17:35:03 66° 102° (ESE) 17:39:27 437.465
HORYU 2 01 Jul 17:32:12 17:36:35 61° 259° (W) 17:41:01 437.375
BRITE-PL 01 Jul 17:36:16 17:40:24 28° 69° (ENE) 17:44:17 437.365/2234.400
GOMX 1 01 Jul 17:53:47 17:56:49 18° 66° (ENE) 17:59:46 467.674
Cosmos 2499 01 Jul 18:11:31 18:18:43 33° 83° (E) 18:26:14 435.465 / 435.565
AIST 1 01 Jul 18:17:24 18:21:02 26° 287° (WNW) 18:24:40
DANDE 01 Jul 18:18:11 18:21:20 18° 61° (ENE) 18:23:59 436.750
Cubesat XI-IV 01 Jul 18:19:11 18:24:25 58° 71° (ENE) 18:29:41 437.490
